When you browse on this site, cookies collect data to enhance your experience and personalize the content and advertising you see.
Visit our Privacy Policy to learn more. By continuing to use the site, you agree to this use of cookies and data.
  • In Latvia
  • List of Countries
  • For 7 days
  • Water Temperature
  • Satellite Maps
  • Weather Map
  • Weather Widgets
  • user-avatar
    Login

    Hourly Weather Severnyy

    Today, 25 March, Monday

    Time Temperature Precipitation Wind Pressure Humidity
    00:00 -4°C° 0 mm 4 mps 737 mmHg 92%
    01:00 -4°C° 0.5 mm 5 mps 736 mmHg 93%
    02:00 -3°C° 0.5 mm 6 mps 734 mmHg 94%
    03:00 -3°C° 0.5 mm 6 mps 733 mmHg 95%
    04:00 -2°C° 1.3 mm 6 mps 731 mmHg 95%
    05:00 -2°C° 1.3 mm 6 mps 730 mmHg 96%
    06:00 -2°C° 1.3 mm 6 mps 728 mmHg 96%
    07:00 -2°C° 0.4 mm 7 mps 728 mmHg 96%
    08:00 -2°C° 0.4 mm 7 mps 727 mmHg 95%
    09:00 -3°C° 0.4 mm 7 mps 726 mmHg 94%
    10:00 -3°C° 0.1 mm 7 mps 726 mmHg 93%
    11:00 -4°C° 0.1 mm 8 mps 726 mmHg 93%
    12:00 -4°C° 0.1 mm 8 mps 726 mmHg 92%
    13:00 -4°C° 0.2 mm 8 mps 726 mmHg 91%
    14:00 -4°C° 0.2 mm 9 mps 727 mmHg 90%
    15:00 -4°C° 0.2 mm 9 mps 727 mmHg 88%
    16:00 -4°C° 0.3 mm 9 mps 728 mmHg 88%
    17:00 -4°C° 0.3 mm 9 mps 728 mmHg 88%
    18:00 -5°C° 0.3 mm 9 mps 729 mmHg 88%
    19:00 -5°C° 0.2 mm 9 mps 730 mmHg 89%
    20:00 -5°C° 0.2 mm 8 mps 731 mmHg 89%
    21:00 -3°C° 0.2 mm 7 mps 732 mmHg 90%
    22:00 -4°C° 0.1 mm 7 mps 732 mmHg 89%
    23:00 -5°C° 0.1 mm 8 mps 733 mmHg 89%

    Tomorrow, 26 March, Tuesday

    Time Temperature Precipitation Wind Pressure Humidity
    00:00 -5°C° 0.1 mm 8 mps 734 mmHg 88%
    01:00 -4°C° 0 mm 7 mps 735 mmHg 89%
    02:00 -4°C° 0 mm 7 mps 736 mmHg 89%
    03:00 -6°C° 0 mm 7 mps 737 mmHg 89%
    04:00 -5°C° 0 mm 6 mps 737 mmHg 90%
    05:00 -6°C° 0 mm 6 mps 738 mmHg 91%
    06:00 -7°C° 0 mm 5 mps 739 mmHg 92%
    07:00 -6°C° 0 mm 5 mps 739 mmHg 92%
    08:00 -5°C° 0 mm 5 mps 740 mmHg 91%
    09:00 -4°C° 0 mm 5 mps 740 mmHg 91%
    10:00 -4°C° 0 mm 5 mps 741 mmHg 93%
    11:00 -2°C° 0 mm 5 mps 741 mmHg 96%
    12:00 -2°C° 0 mm 5 mps 742 mmHg 98%
    13:00 -2°C° 0 mm 5 mps 742 mmHg 96%
    14:00 -1°C° 0 mm 5 mps 742 mmHg 94%
    15:00 -1°C° 0 mm 5 mps 742 mmHg 92%
    16:00 -2°C° 0 mm 5 mps 742 mmHg 92%
    17:00 -2°C° 0 mm 4 mps 742 mmHg 91%
    18:00 -3°C° 0 mm 4 mps 742 mmHg 90%
    19:00 -4°C° 0 mm 5 mps 742 mmHg 89%
    20:00 -4°C° 0 mm 5 mps 741 mmHg 88%
    21:00 -5°C° 0 mm 6 mps 741 mmHg 87%
    22:00 -4°C° 0.5 mm 6 mps 741 mmHg 89%
    23:00 -4°C° 0.5 mm 7 mps 740 mmHg 90%

    Day after tomorrow, 27 March, Wednesday

    Time Temperature Precipitation Wind Pressure Humidity
    00:00 -4°C° 0.5 mm 7 mps 740 mmHg 92%
    01:00 -4°C° 1.6 mm 8 mps 739 mmHg 91%
    02:00 -2°C° 1.6 mm 8 mps 739 mmHg 90%
    03:00 -2°C° 1.6 mm 8 mps 738 mmHg 89%
    04:00 -2°C° 1 mm 8 mps 738 mmHg 89%
    05:00 -2°C° 1 mm 8 mps 738 mmHg 89%
    06:00 -2°C° 1 mm 8 mps 738 mmHg 90%
    07:00 -2°C° 1 mm 8 mps 738 mmHg 92%
    08:00 -2°C° 1 mm 7 mps 738 mmHg 94%
    09:00 -2°C° 1 mm 7 mps 739 mmHg 96%
    10:00 -2°C° 1 mm 7 mps 739 mmHg 95%
    11:00 -2°C° 1 mm 7 mps 739 mmHg 95%
    12:00 -2°C° 1 mm 8 mps 739 mmHg 95%
    13:00 -2°C° 0.8 mm 7 mps 739 mmHg 95%
    14:00 -2°C° 0.8 mm 7 mps 739 mmHg 96%
    15:00 -2°C° 0.8 mm 6 mps 740 mmHg 96%
    16:00 -2°C° 0.1 mm 6 mps 740 mmHg 96%
    17:00 -1°C° 0.1 mm 5 mps 740 mmHg 97%
    18:00 -1°C° 0.1 mm 4 mps 741 mmHg 97%
    19:00 -2°C° 0 mm 4 mps 741 mmHg 97%
    20:00 -1°C° 0 mm 3 mps 741 mmHg 97%
    21:00 -1°C° 0 mm 3 mps 742 mmHg 97%
    22:00 -2°C° 0 mm 3 mps 742 mmHg 96%
    23:00 -2°C° 0 mm 2 mps 742 mmHg 96%

    28 March, Thursday

    Time Temperature Precipitation Wind Pressure Humidity
    00:00 -3°C° 0 mm 2 mps 742 mmHg 95%
    01:00 -3°C° 0 mm 2 mps 742 mmHg 95%
    02:00 -4°C° 0 mm 2 mps 742 mmHg 95%
    03:00 -2°C° 0 mm 1 mps 742 mmHg 94%
    04:00 -3°C° 0 mm 1 mps 741 mmHg 94%
    05:00 -4°C° 0 mm 1 mps 741 mmHg 93%
    06:00 -4°C° 0 mm 1 mps 741 mmHg 93%
    07:00 -3°C° 0 mm 1 mps 742 mmHg 90%
    08:00 -2°C° 0 mm 1 mps 742 mmHg 88%
    09:00 -1°C° 0 mm 1 mps 742 mmHg 86%
    10:00 -1°C° 0 mm 1 mps 742 mmHg 88%
    11:00 0°C° 0 mm 1 mps 742 mmHg 90%
    12:00 0°C° 0 mm 1 mps 742 mmHg 92%
    13:00 -2°C° 0 mm 2 mps 742 mmHg 92%
    14:00 -2°C° 0 mm 2 mps 742 mmHg 93%
    15:00 -1°C° 0 mm 2 mps 741 mmHg 93%
    16:00 -2°C° 0 mm 2 mps 742 mmHg 93%
    17:00 -2°C° 0 mm 2 mps 742 mmHg 93%
    18:00 -4°C° 0 mm 3 mps 742 mmHg 93%
    19:00 -3°C° 0 mm 2 mps 742 mmHg 93%
    20:00 -3°C° 0 mm 2 mps 742 mmHg 93%
    21:00 -3°C° 0 mm 2 mps 742 mmHg 93%
    22:00 -4°C° 0 mm 2 mps 742 mmHg 94%
    23:00 -4°C° 0 mm 2 mps 742 mmHg 95%

    29 March, Friday

    Time Temperature Precipitation Wind Pressure Humidity
    00:00 -4°C° 0 mm 2 mps 742 mmHg 96%
    01:00 -5°C° 0 mm 3 mps 742 mmHg 95%
    02:00 -5°C° 0 mm 3 mps 742 mmHg 94%
    03:00 -5°C° 0 mm 4 mps 742 mmHg 94%
    04:00 -6°C° 0 mm 3 mps 742 mmHg 93%
    05:00 -7°C° 0 mm 3 mps 742 mmHg 92%
    06:00 -8°C° 0 mm 3 mps 742 mmHg 91%
    07:00 -7°C° 0 mm 3 mps 742 mmHg 90%
    08:00 -7°C° 0 mm 3 mps 742 mmHg 89%
    09:00 -6°C° 0 mm 3 mps 743 mmHg 88%
    10:00 -5°C° 0 mm 3 mps 742 mmHg 85%
    11:00 -4°C° 0 mm 3 mps 742 mmHg 83%
    12:00 -4°C° 0 mm 4 mps 742 mmHg 80%
    13:00 -3°C° 0 mm 4 mps 741 mmHg 80%
    14:00 -3°C° 0 mm 4 mps 741 mmHg 81%
    15:00 -3°C° 0 mm 4 mps 740 mmHg 81%
    16:00 -4°C° 0 mm 4 mps 740 mmHg 84%
    17:00 -4°C° 0 mm 3 mps 740 mmHg 86%
    18:00 -5°C° 0 mm 3 mps 739 mmHg 89%
    19:00 -4°C° 0.1 mm 3 mps 740 mmHg 90%
    20:00 -4°C° 0.1 mm 3 mps 740 mmHg 92%
    21:00 -4°C° 0.1 mm 3 mps 740 mmHg 93%
    22:00 -4°C° 0.1 mm 3 mps 740 mmHg 94%
    23:00 -4°C° 0.1 mm 3 mps 740 mmHg 94%

    30 March, Saturday

    Time Temperature Precipitation Wind Pressure Humidity
    00:00 -4°C° 0.1 mm 3 mps 741 mmHg 95%
    01:00 -4°C° 0 mm 3 mps 741 mmHg 95%
    02:00 -5°C° 0 mm 3 mps 741 mmHg 95%
    03:00 -5°C° 0 mm 3 mps 742 mmHg 95%
    04:00 -5°C° 0 mm 3 mps 742 mmHg 95%
    05:00 -5°C° 0 mm 3 mps 743 mmHg 95%
    06:00 -5°C° 0 mm 3 mps 743 mmHg 95%
    07:00 -4°C° 0 mm 3 mps 743 mmHg 94%
    08:00 -4°C° 0 mm 3 mps 744 mmHg 94%
    09:00 -3°C° 0 mm 4 mps 744 mmHg 94%
    10:00 -2°C° 0 mm 3 mps 744 mmHg 95%
    11:00 -2°C° 0 mm 3 mps 744 mmHg 96%
    12:00 -1°C° 0 mm 3 mps 744 mmHg 98%
    13:00 -1°C° 0 mm 3 mps 745 mmHg 96%
    14:00 -2°C° 0 mm 4 mps 745 mmHg 94%
    15:00 -2°C° 0 mm 4 mps 745 mmHg 92%
    16:00 -1°C° 0 mm 3 mps 745 mmHg 92%
    17:00 -2°C° 0 mm 3 mps 745 mmHg 92%
    18:00 -2°C° 0 mm 3 mps 745 mmHg 92%
    19:00 -4°C° 0 mm 3 mps 745 mmHg 92%
    20:00 -4°C° 0 mm 3 mps 745 mmHg 93%
    21:00 -4°C° 0 mm 3 mps 745 mmHg 93%
    22:00 -5°C° 0 mm 3 mps 745 mmHg 93%
    23:00 -5°C° 0 mm 3 mps 745 mmHg 94%
    Show more